Location: Hermaringen
(48.5952°N, 10.2585°E)
Time: 17:51:01
(UTC+00:00)

Injun/Solrad 3 - Pass Details

Date: 20 February 2026
Orbit: 872 x 984 km, 66.8° (Epoch: 6 March)

Event Time Altitude Azimuth Distance (km) Brightness Sun altitude
Rises 20:24:17 0° 312° (NW) 3,593 11.9 -35.6°
Reaches altitude 10° 20:27:47 10° 293° (WNW) 2,667 11.0 -36.1°
Maximum altitude 20:31:24 16° 257° (WSW) 2,264 10.3 -36.6°
Enters shadow 20:34:28 12° 225° (SW) 2,582 10.3 -37.0°
